PICSAT (43132 NORAD) Tracking and Keplerian Element Data

This shows tracking and keplerian element data for the satellite.

Feedback or suggestion? Click here.




ElementValue
Catalog43132
NamePICSAT
Epoch Orbit5129
Epoch Day349.39735305
Epoch Year2018
RAAN52.3881
Inclination97.5133
Eccentricity0.0009974
Argument of Perigee175.2396
Mean Anonmoly184.8937
Mean Motion15.2309709
Decay Rate1.079E-05
L11 43132U 18004X 18349.39735305 .00001079 00000-0 48792-4 0 9997
L22 43132 97.5133 52.3881 0009974 175.2396 184.8937 15.23097090 51295

Live tracking and technical data element details for PICSAT (NORAD 43132). PICSAT can be tracked NOW for your location showing map with azimuth and elevation plus other details from your city location.

Track the satellite on the map from your city or location and see movement details for azimuth, elevation, latitude, longitude, range, height, and movement on the map or in text.







IsCatalogInMostPopularTable: catalog: 43132, numindb: 209
Update: records affected: 1



GetName: 43132 PICSAT

Hit Count: updated at: Sun, 16 Dec 2018 09:57:04 GMT